This documentation is for Dovecot v1.x, see wiki2 for v2.x documentation.

[Show "Revision History"] [Show "General Page Infos"] [Show "Page hits and edits"]

Revision History

Showing page edit history entries from 78 to 277 out of 397 entries total. (5 | 10 | 25 | 50 | 100 | 200 items per page)

# Date Size Editor Comment Action
277 2007-03-19 00:58:55 5253 to previous TimoSirainen   view
276 2007-03-19 00:13:44 5300 to previous TimoSirainen   view
275 2007-03-18 20:30:02 5300 to previous TimoSirainen   view
274 2007-03-18 19:35:38 5288 to previous TimoSirainen   view
273 2007-03-17 12:39:14 5222 to previous TimoSirainen   view
272 2007-03-16 14:35:33 5166 to previous TimoSirainen   view
271 2007-03-13 23:43:32 5257 to previous troyengel add thunderbird debug stublink view
270 2007-03-07 17:20:56 5192 to previous TimoSirainen   view
269 2007-03-06 15:41:05 5137 to previous TimoSirainen   view
268 2007-03-01 15:07:37 5119 to previous skdovecot   view
267 2007-03-01 12:11:26 5050 to previous TimoSirainen   view
266 2007-02-16 21:05:44 4920 to previous TimoSirainen   view
265 2007-01-18 14:32:48 4875 to previous TimoSirainen   view
264 2006-12-22 21:25:05 4820 to previous TimoSirainen   view
263 2006-12-22 21:23:43 4814 to previous TimoSirainen   view
262 2006-12-14 14:48:45 4773 to previous LeventeFarkas   view
261 2006-12-14 13:45:13 4759 to previous LeventeFarkas   view
260 2006-12-11 13:23:29 4633 to previous TimoSirainen   view
259 2006-12-11 05:22:48 4633 to previous James Turnbull   view
258 2006-11-05 19:13:11 4764 to previous TimoSirainen   view
257 2006-11-05 19:00:36 4655 to previous TimoSirainen I think this is good enough for a new front page now view
256 2006-11-05 16:20:00 3115 to previous TimoSirainen   view
255 2006-10-18 09:13:14 3099 to previous James Turnbull   view
254 2006-10-18 09:11:37 3094 to previous James Turnbull   view
253 2006-09-22 15:22:17 3048 to previous TimoSirainen   view
252 2006-07-13 09:38:12 2962 to previous JensNissen   view
251 2006-07-01 18:12:57 2936 to previous TimoSirainen   view
250 2006-06-17 14:52:17 2884 to previous TimoSirainen   view
249 2006-05-18 14:26:14 2855 to previous MatthiasAndree   view
248 2006-05-18 13:12:15 2797 to previous MatthiasAndree add a hr between TOC and Overview view
247 2006-05-18 13:06:12 2793 to previous MatthiasAndree Rearrange link and TOC view
246 2006-05-12 23:35:28 2736 to previous TimoSirainen   view
245 2006-05-12 22:32:37 2668 to previous TimoSirainen   view
244 2006-05-08 12:16:01 2646 to previous TimoSirainen   view
243 2006-05-02 08:59:24 2627 to previous TimoSirainen   view
242 2006-04-25 14:25:03 2607 to previous TimoSirainen   view
241 2006-04-13 10:31:46 2588 to previous danielwatts adding link for new section of example server setups - inspired by mail-list msg view
240 2006-04-08 18:21:37 2557 to previous RobMcGee   view
239 2006-02-28 07:59:58 2529 to previous TimoSirainen   view
238 2006-02-13 21:42:54 2479 to previous TimoSirainen   view
237 2005-12-27 22:26:35 2446 to previous TimoSirainen   view
236 2005-11-02 18:30:09 2428 to previous MarkPlaksin   view
235 2005-11-02 18:23:48 2453 to previous MarkPlaksin   view
234 2005-10-28 15:35:33 2428 to previous TimoSirainen   view
233 2005-09-18 16:12:32 2405 to previous TimoSirainen   view
232 2005-09-18 11:23:20 2362 to previous TimoSirainen   view
231 2005-09-18 11:17:13 2345 to previous TimoSirainen no such page view
230 2005-09-06 17:02:21 2405 to previous ip146 cleaning up more porn view
229 2005-09-06 12:31:20 10156 to previous 202   view
228 2005-08-29 16:21:54 2405 to previous MarcPerkel added odds and ends view
227 2005-08-23 15:25:01 2316 to previous h132n1fls31o263   view
226 2005-08-23 00:08:57 2256 to previous MarcPerkel   view
225 2005-08-22 22:42:30 2252 to previous bigdog Adding Config File Page view
224 2005-08-22 19:15:11 2176 to previous MarcPerkel Added PopRelay view
223 2005-08-21 20:45:56 2132 to previous MarcPerkel Testimonials Link view
222 2005-08-21 20:42:39 2095 to previous MarcPerkel   view
221 2005-08-21 20:42:07 2172 to previous MarcPerkel   view
220 2005-08-21 17:40:02 2128 to previous MarcPerkel   view
219 2005-08-21 17:30:14 2093 to previous MarcPerkel Creating a Features wiki page view
218 2005-08-14 17:08:27 2033 to previous TomiHakala   view
217 2005-08-11 21:29:56 2045 to previous 106   view
216 2005-08-11 19:41:01 31735 to previous 85   view
215 2005-06-05 10:32:05 2045 to previous denver   view
214 2005-06-02 14:00:47 1986 to previous 193   view
213 2005-06-02 13:12:47 2118 to previous rebekah castrize the offensive content view
212 2005-06-02 10:07:37 2118 to previous noc53   view
211 2005-04-22 18:27:59 1986 to previous TomiHakala   view
210 2005-04-22 18:27:19 1993 to previous TomiHakala   view
209 2005-04-22 18:26:41 1986 to previous TomiHakala   view
208 2005-03-14 12:31:08 1947 to previous JimTittsler   view
207 2005-03-14 12:30:48 1882 to previous JimTittsler   view
206 2005-03-14 12:17:33 1947 to previous JimTittsler   view
205 2005-03-14 12:12:15 1930 to previous JimTittsler start 0.99->1.0 upgrade notes view
204 2005-03-05 20:29:17 1882 to previous TimoSirainen   view
203 2005-03-05 20:28:36 1885 to previous TimoSirainen   view
202 2005-01-09 16:15:51 1811 to previous TomiHakala   view
201 2005-01-08 23:28:52 1814 to previous talvi   view
200 2005-01-08 22:30:59 1667 to previous TomiHakala   view
199 2005-01-08 22:30:46 1664 to previous TomiHakala   view
198 2005-01-08 22:26:29 1667 to previous TomiHakala   view
197 2005-01-08 22:14:58 1669 to previous TomiHakala   view
196 2005-01-08 22:13:57 1667 to previous TomiHakala   view
195 2005-01-08 22:13:26 1663 to previous TomiHakala   view
194 2005-01-08 22:12:42 1671 to previous TomiHakala   view
193 2005-01-08 22:11:15 1663 to previous TomiHakala   view
192 2004-12-22 16:05:14 1612 to previous cache82   view
191 2004-12-15 14:40:28 1606 to previous crystal Revert to revision 53. view
190 2004-12-15 14:40:25 1657 to previous crystal Revert to revision 54. view
189 2004-12-15 14:40:22 1732 to previous crystal Revert to revision 55. view
188 2004-12-15 14:40:12 1791 to previous crystal Revert to revision 56. view
187 2004-12-15 14:40:06 1889 to previous crystal Revert to revision 57. view
186 2004-12-15 14:40:05 1922 to previous crystal Revert to revision 58. view
185 2004-12-15 14:39:54 1824 to previous crystal Revert to revision 59. view
184 2004-12-15 14:39:50 1922 to previous crystal Revert to revision 60. view
183 2004-12-15 14:39:46 1889 to previous crystal Revert to revision 61. view
182 2004-12-15 14:39:44 1791 to previous crystal Revert to revision 62. view
181 2004-12-15 14:39:40 1732 to previous crystal Revert to revision 63. view
180 2004-12-15 14:39:33 1657 to previous crystal Revert to revision 64. view
179 2004-12-15 14:39:30 1606 to previous crystal Revert to revision 65. view
178 2004-12-15 14:39:26 1523 to previous crystal Revert to revision 66. view
177 2004-12-15 14:39:23 1398 to previous crystal Revert to revision 67. view
176 2004-12-15 14:39:19 1356 to previous crystal Revert to revision 68. view
175 2004-12-15 14:39:16 1313 to previous crystal Revert to revision 69. view
174 2004-12-15 14:39:15 1255 to previous crystal Revert to revision 70. view
173 2004-12-15 14:39:08 1215 to previous crystal Revert to revision 71. view
172 2004-12-15 14:39:04 1115 to previous crystal Revert to revision 72. view
171 2004-12-15 14:39:00 1065 to previous crystal Revert to revision 73. view
170 2004-12-15 14:38:57 1027 to previous crystal Revert to revision 74. view
169 2004-12-15 14:38:53 1005 to previous crystal Revert to revision 75. view
168 2004-12-15 14:38:48 945 to previous crystal Revert to revision 76. view
167 2004-12-15 14:38:44 894 to previous crystal Revert to revision 77. view
166 2004-12-15 14:38:40 843 to previous crystal Revert to revision 78. view
165 2004-12-15 14:38:36 841 to previous crystal Revert to revision 79. view
164 2004-12-15 14:38:33 818 to previous crystal Revert to revision 80. view
163 2004-12-15 14:38:31 821 to previous crystal Revert to revision 81. view
162 2004-12-15 14:38:28 820 to previous crystal Revert to revision 82. view
161 2004-12-15 14:38:24 834 to previous crystal Revert to revision 83. view
160 2004-12-15 14:38:21 819 to previous crystal Revert to revision 84. view
159 2004-12-15 14:38:20 763 to previous crystal Revert to revision 85. view
158 2004-12-15 14:38:13 695 to previous crystal Revert to revision 86. view
157 2004-12-15 14:38:09 692 to previous crystal Revert to revision 87. view
156 2004-12-15 14:38:05 600 to previous crystal Revert to revision 88. view
155 2004-12-15 14:38:02 600 to previous crystal Revert to revision 89. view
154 2004-12-15 14:37:59 600 to previous crystal Revert to revision 90. view
153 2004-12-15 14:37:57 599 to previous crystal Revert to revision 91. view
152 2004-12-15 14:37:54 600 to previous crystal Revert to revision 92. view
151 2004-12-15 14:37:50 554 to previous crystal Revert to revision 93. view
150 2004-12-15 14:37:47 552 to previous crystal Revert to revision 94. view
149 2004-12-15 14:37:44 552 to previous crystal Revert to revision 95. view
148 2004-12-15 14:37:41 558 to previous crystal Revert to revision 96. view
147 2004-12-15 14:37:40 539 to previous crystal Revert to revision 97. view
146 2004-12-15 14:37:33 486 to previous crystal Revert to revision 98. view
145 2004-12-15 14:37:30 484 to previous crystal Revert to revision 99. view
144 2004-12-15 14:37:27 482 to previous crystal Revert to revision 100. view
143 2004-12-15 14:37:23 490 to previous crystal Revert to revision 101. view
142 2004-12-15 14:37:22 492 to previous crystal Revert to revision 102. view
141 2004-12-15 14:37:15 490 to previous crystal Revert to revision 103. view
140 2004-12-15 14:37:11 495 to previous crystal Revert to revision 104. view
139 2004-12-15 14:37:08 488 to previous crystal Revert to revision 105. view
138 2004-12-15 14:37:06 477 to previous crystal Revert to revision 106. view
137 2004-12-15 14:37:01 439 to previous crystal Revert to revision 107. view
136 2004-12-15 14:36:58 400 to previous crystal Revert to revision 108. view
135 2004-12-15 14:36:55 400 to previous crystal Revert to revision 109. view
134 2004-12-15 14:36:52 304 to previous crystal Revert to revision 110. view
133 2004-12-15 14:36:49 262 to previous crystal Revert to revision 111. view
132 2004-12-15 14:36:46 224 to previous crystal Revert to revision 112. view
131 2004-12-15 14:36:42 242 to previous crystal Revert to revision 113. view
130 2004-12-15 14:36:40 239 to previous crystal Revert to revision 114. view
129 2004-12-15 14:36:35 1494 to previous crystal Revert to revision 115. view
128 2004-12-15 14:36:31 1824 to previous crystal Revert to revision 116. view
127 2004-12-15 14:36:28 1937 to previous crystal Revert to revision 117. view
126 2004-12-15 14:36:24 1992 to previous crystal Revert to revision 118. view
125 2004-12-15 14:36:20 4359 to previous crystal Revert to revision 119. view
124 2004-12-15 14:36:16 3986 to previous crystal Revert to revision 120. view
123 2004-12-15 14:36:12 1992 to previous crystal Revert to revision 121. view
122 2004-11-29 03:32:19 2024 to previous ip213-185-36-189   view
121 2004-11-26 15:13:41 1992 to previous 208 Spam removal view
120 2004-11-26 10:06:46 3986 to previous 222   view
119 2004-11-26 10:05:19 4359 to previous 222   view
118 2004-10-25 13:53:44 1992 to previous tevreden stubs for documentation view
117 2004-10-18 20:00:19 1937 to previous ip213-185-36-189   view
116 2004-10-18 19:27:44 1824 to previous ip213-185-36-189 Revert to revision 59. view
115 2004-10-18 15:52:29 1494 to previous 200-204-126-25 Revert to revision 1. view
114 2004-10-18 15:52:26 239 to previous 200-204-126-25 Revert to revision 2. view
113 2004-10-18 15:52:21 242 to previous 200-204-126-25 Revert to revision 3. view
112 2004-10-18 15:52:18 224 to previous 200-204-126-25 Revert to revision 4. view
111 2004-10-18 15:52:14 262 to previous 200-204-126-25 Revert to revision 5. view
110 2004-10-18 15:52:11 304 to previous 200-204-126-25 Revert to revision 6. view
109 2004-10-18 15:52:08 400 to previous 200-204-126-25 Revert to revision 7. view
108 2004-10-18 15:52:05 400 to previous 200-204-126-25 Revert to revision 8. view
107 2004-10-18 15:52:02 439 to previous 200-204-126-25 Revert to revision 9. view
106 2004-10-18 15:51:59 477 to previous 200-204-126-25 Revert to revision 10. view
105 2004-10-18 15:51:56 488 to previous 200-204-126-25 Revert to revision 11. view
104 2004-10-18 15:51:53 495 to previous 200-204-126-25 Revert to revision 12. view
103 2004-10-18 15:51:50 490 to previous 200-204-126-25 Revert to revision 13. view
102 2004-10-18 15:51:47 492 to previous 200-204-126-25 Revert to revision 14. view
101 2004-10-18 15:51:44 490 to previous 200-204-126-25 Revert to revision 15. view
100 2004-10-18 15:51:41 482 to previous 200-204-126-25 Revert to revision 16. view
99 2004-10-18 15:51:38 484 to previous 200-204-126-25 Revert to revision 17. view
98 2004-10-18 15:51:35 486 to previous 200-204-126-25 Revert to revision 18. view
97 2004-10-18 15:51:32 539 to previous 200-204-126-25 Revert to revision 19. view
96 2004-10-18 15:51:29 558 to previous 200-204-126-25 Revert to revision 20. view
95 2004-10-18 15:51:26 552 to previous 200-204-126-25 Revert to revision 21. view
94 2004-10-18 15:51:23 552 to previous 200-204-126-25 Revert to revision 22. view
93 2004-10-18 15:51:18 554 to previous 200-204-126-25 Revert to revision 24. view
92 2004-10-18 15:51:15 600 to previous 200-204-126-25 Revert to revision 25. view
91 2004-10-18 15:51:11 599 to previous 200-204-126-25 Revert to revision 26. view
90 2004-10-18 15:51:08 600 to previous 200-204-126-25 Revert to revision 27. view
89 2004-10-18 15:51:06 600 to previous 200-204-126-25 Revert to revision 28. view
88 2004-10-18 15:51:03 600 to previous 200-204-126-25 Revert to revision 29. view
87 2004-10-18 15:51:00 692 to previous 200-204-126-25 Revert to revision 30. view
86 2004-10-18 15:50:57 695 to previous 200-204-126-25 Revert to revision 31. view
85 2004-10-18 15:50:54 763 to previous 200-204-126-25 Revert to revision 32. view
84 2004-10-18 15:50:51 819 to previous 200-204-126-25 Revert to revision 33. view
83 2004-10-18 15:50:47 834 to previous 200-204-126-25 Revert to revision 34. view
82 2004-10-18 15:50:44 820 to previous 200-204-126-25 Revert to revision 35. view
81 2004-10-18 15:50:41 821 to previous 200-204-126-25 Revert to revision 36. view
80 2004-10-18 15:50:38 818 to previous 200-204-126-25 Revert to revision 37. view
79 2004-10-18 15:50:35 841 to previous 200-204-126-25 Revert to revision 38. view
78 2004-10-18 15:50:29 843 to previous 200-204-126-25 Revert to revision 40. view